| time (UTC) | temp C | wind direction | speed KPH | gust KPH | rain 1hr cm | rain 24hr cm | rain mn cm | humidity % | barometer mb |
| 20260510064304 | 12 | 1 | 0.0 | 0.0 | 0.00 | 0.00 | 0.00 | 69 | 1011.9 |
| 20260510063804 | 13 | 13 | 0.0 | 0.0 | 0.00 | 0.00 | 0.00 | 69 | 1011.9 |
| 20260510063305 | 13 | 13 | 0.0 | 1.6 | 0.00 | 0.00 | 0.00 | 68 | 1012.0 |
| 20260510062803 | 13 | 290 | 0.0 | 1.6 | 0.00 | 0.00 | 0.00 | 68 | 1011.9 |
| 20260510062306 | 13 | 296 | 0.0 | 1.6 | 0.00 | 0.00 | 0.00 | 68 | 1012.0 |
| 20260510061803 | 13 | 239 | 0.0 | 0.0 | 0.00 | 0.00 | 0.00 | 68 | 1011.9 |
| 20260510061304 | 13 | 273 | 0.0 | 1.6 | 0.00 | 0.00 | 0.00 | 68 | 1011.9 |
| 20260510060803 | 13 | 309 | 0.0 | 0.0 | 0.00 | 0.00 | 0.00 | 68 | 1011.9 |
| 20260510060303 | 13 | 271 | 0.0 | 0.0 | 0.00 | 0.00 | 0.00 | 68 | 1012.0 |
| 20260510055804 | 13 | 302 | 0.0 | 1.6 | 0.00 | 0.00 | 0.00 | 68 | 1012.0 |
| 20260510055307 | 13 | 72 | 0.0 | 0.0 | 0.00 | 0.00 | 0.00 | 68 | 1012.0 |
| 20260510054804 | 13 | 80 | 0.0 | 0.0 | 0.00 | 0.00 | 0.00 | 67 | 1012.0 |
| 20260510054304 | 13 | 80 | 0.0 | 0.0 | 0.00 | 0.00 | 0.00 | 67 | 1012.0 |
| 20260510053805 | 13 | 80 | 0.0 | 0.0 | 0.00 | 0.00 | 0.00 | 67 | 1011.9 |
| 20260510053304 | 13 | 80 | 0.0 | 0.0 | 0.00 | 0.00 | 0.00 | 67 | 1012.0 |
| 20260510052804 | 13 | 80 | 0.0 | 0.0 | 0.00 | 0.00 | 0.00 | 67 | 1011.9 |
| 20260510052306 | 13 | 80 | 0.0 | 0.0 | 0.00 | 0.00 | 0.00 | 68 | 1011.9 |
| 20260510051804 | 13 | 80 | 0.0 | 0.0 | 0.00 | 0.00 | 0.00 | 68 | 1011.9 |
| 20260510051304 | 13 | 81 | 0.0 | 0.0 | 0.00 | 0.00 | 0.00 | 68 | 1012.1 |
| 20260510050805 | 12 | 80 | 0.0 | 0.0 | 0.00 | 0.00 | 0.00 | 69 | 1012.1 |
| 20260510050303 | 12 | 80 | 0.0 | 0.0 | 0.00 | 0.00 | 0.00 | 69 | 1012.2 |
| 20260510045803 | 13 | 80 | 0.0 | 0.0 | 0.00 | 0.00 | 0.00 | 68 | 1012.1 |
| 20260510045306 | 13 | 81 | 0.0 | 0.0 | 0.00 | 0.00 | 0.00 | 69 | 1012.2 |
| 20260510044803 | 13 | 80 | 0.0 | 0.0 | 0.00 | 0.00 | 0.00 | 68 | 1012.1 |
| 20260510044303 | 13 | 80 | 0.0 | 0.0 | 0.00 | 0.00 | 0.00 | 68 | 1012.1 |
| 20260510043303 | 12 | 80 | 0.0 | 0.0 | 0.00 | 0.00 | 0.00 | 69 | 1012.2 |
| 20260510042306 | 12 | 80 | 0.0 | 0.0 | 0.00 | 0.00 | 0.00 | 70 | 1012.3 |
| 20260510041804 | 12 | 80 | 0.0 | 0.0 | 0.00 | 0.00 | 0.00 | 70 | 1012.3 |
| 20260510041304 | 13 | 80 | 0.0 | 0.0 | 0.00 | 0.00 | 0.00 | 70 | 1012.3 |
| 20260510040303 | 13 | 80 | 0.0 | 0.0 | 0.00 | 0.00 | 0.00 | 71 | 1012.2 |
| 20260510035803 | 13 | 80 | 0.0 | 0.0 | 0.00 | 0.00 | 0.00 | 71 | 1012.3 |
| 20260510035306 | 13 | 80 | 0.0 | 0.0 | 0.00 | 0.00 | 0.00 | 70 | 1012.3 |
| 20260510034804 | 13 | 80 | 0.0 | 0.0 | 0.00 | 0.00 | 0.00 | 69 | 1012.3 |
| 20260510034305 | 13 | 80 | 0.0 | 0.0 | 0.00 | 0.00 | 0.00 | 69 | 1012.3 |
| 20260510033804 | 13 | 80 | 0.0 | 0.0 | 0.00 | 0.00 | 0.00 | 69 | 1012.4 |
| 20260510032306 | 13 | 81 | 0.0 | 0.0 | 0.00 | 0.00 | 0.00 | 68 | 1012.2 |
| 20260510031805 | 13 | 80 | 0.0 | 0.0 | 0.00 | 0.00 | 0.00 | 68 | 1012.1 |
| 20260510031304 | 13 | 80 | 0.0 | 0.0 | 0.00 | 0.00 | 0.00 | 69 | 1012.1 |
| 20260510030804 | 13 | 80 | 0.0 | 0.0 | 0.00 | 0.00 | 0.00 | 69 | 1012.1 |
| 20260510030304 | 14 | 81 | 0.0 | 0.0 | 0.00 | 0.00 | 0.00 | 70 | 1012.1 |
| 20260510025805 | 14 | 80 | 0.0 | 0.0 | 0.00 | 0.00 | 0.00 | 70 | 1012.0 |
| 20260510025306 | 14 | 81 | 0.0 | 0.0 | 0.00 | 0.00 | 0.00 | 70 | 1011.9 |
| 20260510024804 | 15 | 81 | 0.0 | 0.0 | 0.00 | 0.00 | 0.00 | 70 | 1011.8 |
| 20260510024303 | 15 | 81 | 0.0 | 0.0 | 0.00 | 0.00 | 0.00 | 69 | 1011.9 |
| 20260510023803 | 15 | 81 | 0.0 | 0.0 | 0.00 | 0.00 | 0.00 | 68 | 1011.8 |
| 20260510023303 | 15 | 80 | 0.0 | 0.0 | 0.00 | 0.00 | 0.00 | 67 | 1011.7 |
| 20260510022804 | 15 | 81 | 0.0 | 0.0 | 0.00 | 0.00 | 0.00 | 68 | 1011.6 |
| 20260510022306 | 15 | 81 | 0.0 | 0.0 | 0.00 | 0.00 | 0.00 | 68 | 1011.6 |
| 20260510021804 | 15 | 80 | 0.0 | 0.0 | 0.00 | 0.00 | 0.00 | 68 | 1011.4 |
| 20260510021304 | 15 | 81 | 0.0 | 0.0 | 0.00 | 0.00 | 0.00 | 70 | 1011.3 |
| 20260510020303 | 15 | 81 | 0.0 | 0.0 | 0.00 | 0.00 | 0.00 | 70 | 1011.3 |
| 20260510015804 | 15 | 80 | 0.0 | 0.0 | 0.00 | 0.00 | 0.00 | 70 | 1011.1 |
| 20260510015306 | 15 | 81 | 0.0 | 0.0 | 0.00 | 0.00 | 0.00 | 69 | 1011.0 |
| 20260510014804 | 15 | 81 | 0.0 | 0.0 | 0.00 | 0.00 | 0.00 | 69 | 1011.0 |
| 20260510014304 | 16 | 81 | 0.0 | 0.0 | 0.00 | 0.00 | 0.00 | 67 | 1010.9 |
| 20260510013804 | 16 | 81 | 0.0 | 0.0 | 0.00 | 0.00 | 0.00 | 67 | 1010.7 |
| 20260510013304 | 16 | 81 | 0.0 | 0.0 | 0.00 | 0.00 | 0.00 | 67 | 1010.7 |
| 20260510012804 | 16 | 81 | 0.0 | 1.6 | 0.00 | 0.00 | 0.00 | 67 | 1010.7 |
| 20260510012307 | 16 | 80 | 1.6 | 1.6 | 0.00 | 0.00 | 0.00 | 67 | 1010.6 |
| 20260510011805 | 16 | 81 | 0.0 | 0.0 | 0.00 | 0.00 | 0.00 | 67 | 1010.4 |
| 20260510011304 | 16 | 80 | 0.0 | 0.0 | 0.00 | 0.00 | 0.00 | 66 | 1010.4 |
| 20260510010803 | 16 | 81 | 0.0 | 0.0 | 0.00 | 0.00 | 0.00 | 65 | 1010.3 |
| 20260510010304 | 16 | 81 | 0.0 | 0.0 | 0.00 | 0.00 | 0.00 | 64 | 1010.2 |
| 20260510005804 | 17 | 81 | 0.0 | 0.0 | 0.00 | 0.00 | 0.00 | 62 | 1010.2 |
| 20260510005306 | 17 | 80 | 0.0 | 0.0 | 0.00 | 0.00 | 0.00 | 61 | 1010.2 |
| 20260510004804 | 17 | 81 | 0.0 | 0.0 | 0.00 | 0.00 | 0.00 | 60 | 1010.1 |
| 20260510003803 | 18 | 81 | 0.0 | 0.0 | 0.00 | 0.00 | 0.00 | 58 | 1009.8 |
| 20260510003305 | 18 | 81 | 0.0 | 0.0 | 0.00 | 0.00 | 0.00 | 58 | 1009.7 |
| 20260510002804 | 18 | 81 | 0.0 | 0.0 | 0.00 | 0.00 | 0.00 | 57 | 1009.6 |
| 20260510002306 | 18 | 81 | 0.0 | 1.6 | 0.00 | 0.00 | 0.00 | 56 | 1009.5 |
| 20260510001805 | 19 | 81 | 0.0 | 3.2 | 0.00 | 0.00 | 0.00 | 56 | 1009.5 |
| 20260510001304 | 19 | 311 | 0.0 | 0.0 | 0.00 | 0.00 | 0.00 | 54 | 1009.4 |
| 20260510000304 | 20 | 311 | 0.0 | 0.0 | 0.00 | 0.00 | 0.00 | 52 | 1009.2 |
| 20260509235804 | 20 | 311 | 0.0 | 1.6 | 0.00 | 0.00 | 0.00 | 51 | 1009.2 |
| 20260509235307 | 21 | 304 | 0.0 | 0.0 | 0.00 | 0.00 | 0.00 | 50 | 1009.1 |
| 20260509234804 | 21 | 304 | 0.0 | 1.6 | 0.00 | 0.00 | 0.00 | 50 | 1009.1 |
| 20260509234304 | 21 | 304 | 1.6 | 3.2 | 0.00 | 0.00 | 0.00 | 49 | 1009.1 |
| 20260509233804 | 21 | 231 | 0.0 | 1.6 | 0.00 | 0.00 | 0.00 | 49 | 1009.1 |
| 20260509233304 | 21 | 231 | 0.0 | 1.6 | 0.00 | 0.00 | 0.00 | 49 | 1009.1 |
| 20260509232804 | 21 | 281 | 1.6 | 3.2 | 0.00 | 0.00 | 0.00 | 48 | 1009.1 |
| 20260509232306 | 21 | 233 | 0.0 | 1.6 | 0.00 | 0.00 | 0.00 | 49 | 1009.1 |
| 20260509231304 | 22 | 233 | 1.6 | 4.8 | 0.00 | 0.00 | 0.00 | 47 | 1009.1 |
| 20260509230803 | 22 | 273 | 1.6 | 3.2 | 0.00 | 0.00 | 0.00 | 46 | 1009.0 |
| 20260509230304 | 22 | 318 | 3.2 | 4.8 | 0.00 | 0.00 | 0.00 | 45 | 1009.0 |
| 20260509225804 | 22 | 261 | 0.0 | 3.2 | 0.00 | 0.00 | 0.00 | 45 | 1009.0 |
| 20260509225306 | 22 | 328 | 1.6 | 4.8 | 0.00 | 0.00 | 0.00 | 44 | 1009.0 |
| 20260509224304 | 23 | 236 | 1.6 | 8.0 | 0.00 | 0.00 | 0.00 | 44 | 1009.0 |
| 20260509223803 | 23 | 287 | 1.6 | 3.2 | 0.00 | 0.00 | 0.00 | 43 | 1009.1 |
| 20260509223303 | 23 | 257 | 3.2 | 4.8 | 0.00 | 0.00 | 0.00 | 40 | 1009.0 |
| 20260509222804 | 24 | 208 | 1.6 | 4.8 | 0.00 | 0.00 | 0.00 | 40 | 1009.1 |
| 20260509222307 | 24 | 230 | 1.6 | 4.8 | 0.00 | 0.00 | 0.00 | 41 | 1009.1 |
| 20260509221804 | 24 | 230 | 1.6 | 4.8 | 0.00 | 0.00 | 0.00 | 41 | 1009.1 |
| 20260509221303 | 24 | 258 | 1.6 | 8.0 | 0.00 | 0.00 | 0.00 | 41 | 1009.1 |
| 20260509220803 | 25 | 239 | 1.6 | 3.2 | 0.00 | 0.00 | 0.00 | 41 | 1009.0 |
| 20260509220304 | 25 | 231 | 1.6 | 3.2 | 0.00 | 0.00 | 0.00 | 39 | 1008.9 |
| 20260509215803 | 25 | 216 | 1.6 | 4.8 | 0.00 | 0.00 | 0.00 | 39 | 1009.0 |
| 20260509215306 | 25 | 233 | 3.2 | 4.8 | 0.00 | 0.00 | 0.00 | 40 | 1008.8 |
| 20260509214804 | 25 | 226 | 1.6 | 4.8 | 0.00 | 0.00 | 0.00 | 40 | 1008.9 |
| 20260509214303 | 25 | 247 | 1.6 | 4.8 | 0.00 | 0.00 | 0.00 | 41 | 1008.9 |
| 20260509213303 | 25 | 270 | 4.8 | 11.3 | 0.00 | 0.00 | 0.00 | 40 | 1008.8 |
| 20260509212803 | 25 | 317 | 1.6 | 3.2 | 0.00 | 0.00 | 0.00 | 40 | 1008.8 |
| 20260509212306 | 24 | 201 | 1.6 | 4.8 | 0.00 | 0.00 | 0.00 | 42 | 1008.9 |
| 20260509211804 | 24 | 227 | 3.2 | 4.8 | 0.00 | 0.00 | 0.00 | 42 | 1008.8 |
| 20260509210803 | 23 | 206 | 3.2 | 8.0 | 0.00 | 0.00 | 0.00 | 42 | 1008.8 |
| 20260509210303 | 23 | 193 | 1.6 | 4.8 | 0.00 | 0.00 | 0.00 | 43 | 1008.8 |
| 20260509205804 | 23 | 235 | 1.6 | 4.8 | 0.00 | 0.00 | 0.00 | 43 | 1008.7 |
| 20260509204804 | 22 | 330 | 3.2 | 9.7 | 0.00 | 0.00 | 0.00 | 44 | 1008.7 |
| 20260509204304 | 23 | 273 | 3.2 | 4.8 | 0.00 | 0.00 | 0.00 | 42 | 1008.7 |
| 20260509203804 | 23 | 195 | 3.2 | 8.0 | 0.00 | 0.00 | 0.00 | 40 | 1008.6 |
| 20260509203304 | 23 | 275 | 1.6 | 8.0 | 0.00 | 0.00 | 0.00 | 41 | 1008.5 |
| 20260509202804 | 23 | 258 | 3.2 | 4.8 | 0.00 | 0.00 | 0.00 | 42 | 1008.5 |
| 20260509202306 | 23 | 288 | 1.6 | 4.8 | 0.00 | 0.00 | 0.00 | 43 | 1008.4 |
| 20260509201805 | 23 | 237 | 1.6 | 4.8 | 0.00 | 0.00 | 0.00 | 41 | 1008.5 |
| 20260509201304 | 23 | 270 | 1.6 | 4.8 | 0.00 | 0.00 | 0.00 | 42 | 1008.4 |
| 20260509200804 | 23 | 205 | 1.6 | 4.8 | 0.00 | 0.00 | 0.00 | 39 | 1008.3 |
| 20260509200304 | 24 | 201 | 3.2 | 8.0 | 0.00 | 0.00 | 0.00 | 39 | 1008.4 |
| 20260509195804 | 25 | 221 | 3.2 | 9.7 | 0.00 | 0.00 | 0.00 | 39 | 1008.4 |
| 20260509195306 | 25 | 238 | 3.2 | 14.5 | 0.00 | 0.00 | 0.00 | 40 | 1008.6 |
| 20260509194804 | 25 | 306 | 3.2 | 9.7 | 0.00 | 0.00 | 0.00 | 38 | 1008.6 |
| 20260509193803 | 25 | 224 | 3.2 | 9.7 | 0.00 | 0.00 | 0.00 | 37 | 1008.7 |
| 20260509193303 | 25 | 257 | 3.2 | 8.0 | 0.00 | 0.00 | 0.00 | 38 | 1008.8 |
| 20260509192804 | 25 | 244 | 3.2 | 8.0 | 0.00 | 0.00 | 0.00 | 39 | 1008.9 |
| 20260509191303 | 25 | 290 | 3.2 | 9.7 | 0.00 | 0.00 | 0.00 | 39 | 1009.2 |
| 20260509190804 | 25 | 231 | 1.6 | 4.8 | 0.00 | 0.00 | 0.00 | 40 | 1009.2 |
| 20260509190304 | 24 | 181 | 3.2 | 8.0 | 0.00 | 0.00 | 0.00 | 38 | 1009.1 |
| 20260509185803 | 24 | 251 | 3.2 | 12.9 | 0.00 | 0.00 | 0.00 | 39 | 1009.2 |
| 20260509185306 | 24 | 242 | 3.2 | 8.0 | 0.00 | 0.00 | 0.00 | 41 | 1009.1 |
| 20260509184804 | 23 | 295 | 4.8 | 11.3 | 0.00 | 0.00 | 0.00 | 42 | 1009.4 |
| 20260509184303 | 23 | 212 | 1.6 | 4.8 | 0.00 | 0.00 | 0.00 | 44 | 1009.4 |
| 20260509183804 | 22 | 183 | 1.6 | 9.7 | 0.00 | 0.00 | 0.00 | 42 | 1009.4 |
| 20260509183304 | 22 | 213 | 3.2 | 9.7 | 0.00 | 0.00 | 0.00 | 40 | 1009.4 |
| 20260509181805 | 23 | 299 | 4.8 | 9.7 | 0.00 | 0.00 | 0.00 | 40 | 1009.5 |
| 20260509181304 | 23 | 207 | 1.6 | 4.8 | 0.00 | 0.00 | 0.00 | 40 | 1009.4 |
| 20260509180804 | 23 | 254 | 1.6 | 4.8 | 0.00 | 0.00 | 0.00 | 41 | 1009.4 |
| 20260509180305 | 23 | 248 | 1.6 | 4.8 | 0.00 | 0.00 | 0.00 | 42 | 1009.5 |
| 20260509175803 | 23 | 239 | 1.6 | 4.8 | 0.00 | 0.00 | 0.00 | 38 | 1009.7 |
| 20260509174803 | 24 | 167 | 1.6 | 4.8 | 0.00 | 0.00 | 0.00 | 42 | 1009.7 |
| 20260509174303 | 23 | 288 | 1.6 | 8.0 | 0.00 | 0.00 | 0.00 | 44 | 1009.9 |
| 20260509173804 | 23 | 224 | 1.6 | 8.0 | 0.00 | 0.00 | 0.00 | 45 | 1009.9 |
| 20260509173304 | 23 | 181 | 3.2 | 8.0 | 0.00 | 0.00 | 0.00 | 45 | 1009.9 |
| 20260509172803 | 23 | 189 | 1.6 | 8.0 | 0.00 | 0.00 | 0.00 | 45 | 1010.1 |
| 20260509172306 | 23 | 247 | 3.2 | 4.8 | 0.00 | 0.00 | 0.00 | 44 | 1010.2 |
| 20260509171803 | 23 | 55 | 3.2 | 11.3 | 0.00 | 0.00 | 0.00 | 45 | 1010.5 |
| 20260509171304 | 22 | 270 | 3.2 | 4.8 | 0.00 | 0.00 | 0.00 | 47 | 1010.4 |
| 20260509170804 | 22 | 248 | 4.8 | 14.5 | 0.00 | 0.00 | 0.00 | 45 | 1010.4 |
| 20260509170304 | 22 | 249 | 3.2 | 8.0 | 0.00 | 0.00 | 0.00 | 46 | 1010.6 |
| 20260509165803 | 22 | 314 | 3.2 | 8.0 | 0.00 | 0.00 | 0.00 | 45 | 1010.6 |
| 20260509165306 | 22 | 246 | 1.6 | 11.3 | 0.00 | 0.00 | 0.00 | 49 | 1010.6 |
| 20260509164305 | 21 | 139 | 3.2 | 8.0 | 0.00 | 0.00 | 0.00 | 49 | 1010.4 |
| 20260509163304 | 21 | 268 | 3.2 | 8.0 | 0.00 | 0.00 | 0.00 | 48 | 1010.5 |
| 20260509162803 | 21 | 186 | 4.8 | 8.0 | 0.00 | 0.00 | 0.00 | 51 | 1010.6 |
| 20260509162307 | 21 | 223 | 4.8 | 9.7 | 0.00 | 0.00 | 0.00 | 49 | 1010.8 |
| 20260509161803 | 21 | 231 | 3.2 | 9.7 | 0.00 | 0.00 | 0.00 | 50 | 1010.7 |
| 20260509161304 | 21 | 265 | 1.6 | 9.7 | 0.00 | 0.00 | 0.00 | 50 | 1010.7 |
| 20260509160804 | 21 | 281 | 3.2 | 8.0 | 0.00 | 0.00 | 0.00 | 50 | 1010.6 |
| 20260509160305 | 21 | 278 | 3.2 | 8.0 | 0.00 | 0.00 | 0.00 | 49 | 1010.6 |
| 20260509155803 | 21 | 289 | 3.2 | 4.8 | 0.00 | 0.00 | 0.00 | 51 | 1010.6 |
| 20260509155306 | 20 | 232 | 3.2 | 8.0 | 0.00 | 0.00 | 0.00 | 52 | 1010.5 |
| 20260509154803 | 20 | 253 | 3.2 | 9.7 | 0.00 | 0.00 | 0.00 | 50 | 1010.5 |
| 20260509154303 | 20 | 240 | 4.8 | 9.7 | 0.00 | 0.00 | 0.00 | 50 | 1010.5 |
| 20260509153804 | 20 | 245 | 3.2 | 8.0 | 0.00 | 0.00 | 0.00 | 54 | 1010.7 |
| 20260509153304 | 19 | 277 | 4.8 | 11.3 | 0.00 | 0.00 | 0.00 | 54 | 1010.7 |
| 20260509152804 | 19 | 248 | 1.6 | 9.7 | 0.00 | 0.00 | 0.00 | 54 | 1010.7 |
| 20260509152305 | 19 | 298 | 3.2 | 4.8 | 0.00 | 0.00 | 0.00 | 54 | 1010.8 |
| 20260509151304 | 19 | 255 | 3.2 | 12.9 | 0.00 | 0.00 | 0.00 | 54 | 1010.8 |
| 20260509150804 | 19 | 244 | 3.2 | 4.8 | 0.00 | 0.00 | 0.00 | 53 | 1010.8 |
| 20260509150303 | 19 | 237 | 4.8 | 9.7 | 0.00 | 0.00 | 0.00 | 54 | 1010.8 |
| 20260509145804 | 19 | 215 | 3.2 | 11.3 | 0.00 | 0.00 | 0.00 | 57 | 1010.8 |
| 20260509145306 | 19 | 254 | 1.6 | 8.0 | 0.00 | 0.00 | 0.00 | 57 | 1010.7 |
| 20260509144803 | 19 | 284 | 3.2 | 8.0 | 0.00 | 0.00 | 0.00 | 55 | 1010.7 |
| 20260509144304 | 19 | 298 | 3.2 | 9.7 | 0.00 | 0.00 | 0.00 | 55 | 1010.7 |
| 20260509143803 | 19 | 243 | 3.2 | 4.8 | 0.00 | 0.00 | 0.00 | 53 | 1010.7 |
| 20260509142307 | 19 | 253 | 1.6 | 8.0 | 0.00 | 0.00 | 0.00 | 56 | 1010.6 |
| 20260509141804 | 18 | 225 | 1.6 | 4.8 | 0.00 | 0.00 | 0.00 | 59 | 1010.5 |
| 20260509140803 | 17 | 254 | 1.6 | 4.8 | 0.00 | 0.00 | 0.00 | 61 | 1010.7 |
| 20260509140304 | 17 | 252 | 1.6 | 4.8 | 0.00 | 0.00 | 0.00 | 61 | 1010.7 |
| 20260509135804 | 17 | 257 | 3.2 | 9.7 | 0.00 | 0.00 | 0.00 | 60 | 1010.8 |
| 20260509134804 | 17 | 220 | 1.6 | 4.8 | 0.00 | 0.00 | 0.00 | 60 | 1011.2 |
| 20260509134304 | 17 | 272 | 3.2 | 9.7 | 0.00 | 0.00 | 0.00 | 61 | 1011.2 |
| 20260509133804 | 17 | 248 | 3.2 | 11.3 | 0.00 | 0.00 | 0.00 | 61 | 1011.2 |
| 20260509133304 | 17 | 240 | 4.8 | 9.7 | 0.00 | 0.00 | 0.00 | 61 | 1011.3 |
| 20260509132804 | 16 | 241 | 1.6 | 14.5 | 0.00 | 0.00 | 0.00 | 61 | 1011.3 |
| 20260509131804 | 16 | 261 | 3.2 | 12.9 | 0.00 | 0.00 | 0.00 | 62 | 1011.5 |
| 20260509131304 | 16 | 250 | 3.2 | 11.3 | 0.00 | 0.00 | 0.00 | 63 | 1011.5 |
| 20260509130804 | 16 | 270 | 1.6 | 4.8 | 0.00 | 0.00 | 0.00 | 62 | 1011.6 |
| 20260509130305 | 16 | 280 | 1.6 | 4.8 | 0.00 | 0.00 | 0.00 | 63 | 1011.7 |
| 20260509125307 | 16 | 237 | 1.6 | 9.7 | 0.00 | 0.00 | 0.00 | 63 | 1011.6 |
| 20260509124805 | 16 | 227 | 0.0 | 4.8 | 0.00 | 0.00 | 0.00 | 64 | 1011.7 |
| 20260509124303 | 16 | 236 | 1.6 | 4.8 | 0.00 | 0.00 | 0.00 | 64 | 1011.8 |
| 20260509123804 | 16 | 252 | 3.2 | 4.8 | 0.00 | 0.00 | 0.00 | 64 | 1011.8 |
| 20260509123304 | 15 | 226 | 3.2 | 11.3 | 0.00 | 0.00 | 0.00 | 63 | 1011.8 |
| 20260509122804 | 15 | 266 | 1.6 | 8.0 | 0.00 | 0.00 | 0.00 | 63 | 1011.8 |
| 20260509121803 | 15 | 261 | 1.6 | 3.2 | 0.00 | 0.00 | 0.00 | 65 | 1011.8 |
| 20260509121303 | 15 | 246 | 3.2 | 8.0 | 0.00 | 0.00 | 0.00 | 66 | 1011.8 |
| 20260509120804 | 15 | 244 | 1.6 | 4.8 | 0.00 | 0.00 | 0.00 | 65 | 1011.8 |
| 20260509120303 | 14 | 249 | 0.0 | 1.6 | 0.00 | 0.00 | 0.00 | 66 | 1011.8 |
| 20260509115804 | 14 | 243 | 0.0 | 0.0 | 0.00 | 0.00 | 0.00 | 66 | 1011.9 |
| 20260509115306 | 14 | 240 | 0.0 | 1.6 | 0.00 | 0.00 | 0.00 | 66 | 1011.8 |
| 20260509114803 | 13 | 231 | 0.0 | 1.6 | 0.00 | 0.00 | 0.00 | 66 | 1011.8 |
| 20260509114304 | 13 | 246 | 0.0 | 1.6 | 0.00 | 0.00 | 0.00 | 66 | 1011.8 |
| 20260509113804 | 13 | 285 | 0.0 | 1.6 | 0.00 | 0.00 | 0.00 | 65 | 1011.8 |
| 20260509112804 | 13 | 256 | 1.6 | 3.2 | 0.00 | 0.00 | 0.00 | 64 | 1011.8 |
| 20260509112306 | 13 | 297 | 0.0 | 3.2 | 0.00 | 0.00 | 0.00 | 64 | 1011.8 |
| 20260509111304 | 13 | 320 | 0.0 | 3.2 | 0.00 | 0.00 | 0.00 | 64 | 1011.8 |
| 20260509110804 | 13 | 252 | 0.0 | 3.2 | 0.00 | 0.00 | 0.00 | 63 | 1011.8 |
| 20260509110304 | 13 | 288 | 0.0 | 1.6 | 0.00 | 0.00 | 0.00 | 63 | 1011.8 |
| 20260509105804 | 13 | 326 | 0.0 | 0.0 | 0.00 | 0.00 | 0.00 | 63 | 1011.7 |
| 20260509105306 | 13 | 326 | 0.0 | 0.0 | 0.00 | 0.00 | 0.00 | 62 | 1011.7 |
| 20260509104804 | 13 | 326 | 1.6 | 3.2 | 0.00 | 0.00 | 0.00 | 62 | 1011.6 |
| 20260509104304 | 13 | 328 | 0.0 | 0.0 | 0.00 | 0.00 | 0.00 | 62 | 1011.5 |
| 20260509103805 | 13 | 328 | 1.6 | 3.2 | 0.00 | 0.00 | 0.00 | 62 | 1011.6 |
| 20260509103304 | 13 | 328 | 0.0 | 3.2 | 0.00 | 0.00 | 0.00 | 62 | 1011.7 |
| 20260509102804 | 13 | 326 | 0.0 | 1.6 | 0.00 | 0.00 | 0.00 | 62 | 1011.7 |
| 20260509102305 | 13 | 327 | 1.6 | 3.2 | 0.00 | 0.00 | 0.00 | 62 | 1011.8 |
| 20260509101303 | 13 | 333 | 0.0 | 4.8 | 0.00 | 0.00 | 0.00 | 61 | 1011.7 |
| 20260509100803 | 13 | 275 | 0.0 | 1.6 | 0.00 | 0.00 | 0.00 | 61 | 1011.7 |
| 20260509100303 | 13 | 297 | 1.6 | 4.8 | 0.00 | 0.00 | 0.00 | 61 | 1011.7 |
| 20260509095804 | 13 | 256 | 0.0 | 4.8 | 0.00 | 0.00 | 0.00 | 61 | 1011.7 |
| 20260509095306 | 13 | 265 | 1.6 | 4.8 | 0.00 | 0.00 | 0.00 | 61 | 1011.8 |
| 20260509094803 | 13 | 255 | 1.6 | 3.2 | 0.00 | 0.00 | 0.00 | 61 | 1011.8 |
| 20260509094305 | 13 | 271 | 1.6 | 4.8 | 0.00 | 0.00 | 0.00 | 61 | 1011.7 |
| 20260509093804 | 13 | 259 | 0.0 | 1.6 | 0.00 | 0.00 | 0.00 | 61 | 1011.7 |
| 20260509093304 | 13 | 309 | 1.6 | 3.2 | 0.00 | 0.00 | 0.00 | 61 | 1011.7 |
| 20260509092804 | 13 | 275 | 0.0 | 4.8 | 0.00 | 0.00 | 0.00 | 60 | 1011.7 |
| 20260509092306 | 13 | 314 | 0.0 | 1.6 | 0.00 | 0.00 | 0.00 | 60 | 1011.7 |
| 20260509091804 | 13 | 336 | 1.6 | 3.2 | 0.00 | 0.00 | 0.00 | 59 | 1011.7 |
| 20260509091304 | 13 | 323 | 1.6 | 4.8 | 0.00 | 0.00 | 0.00 | 59 | 1011.8 |
| 20260509090803 | 13 | 295 | 0.0 | 3.2 | 0.00 | 0.00 | 0.00 | 59 | 1011.9 |
| 20260509090303 | 13 | 232 | 0.0 | 4.8 | 0.00 | 0.00 | 0.00 | 59 | 1011.9 |
| 20260509085804 | 13 | 262 | 1.6 | 4.8 | 0.00 | 0.00 | 0.00 | 58 | 1011.8 |
| 20260509085306 | 13 | 333 | 1.6 | 4.8 | 0.00 | 0.00 | 0.00 | 58 | 1011.9 |
| 20260509084804 | 12 | 302 | 1.6 | 3.2 | 0.00 | 0.00 | 0.00 | 58 | 1011.9 |
| 20260509084305 | 12 | 326 | 1.6 | 1.6 | 0.00 | 0.00 | 0.00 | 57 | 1011.9 |
| 20260509083804 | 12 | 16 | 1.6 | 3.2 | 0.00 | 0.00 | 0.00 | 57 | 1011.9 |
| 20260509083304 | 12 | 252 | 1.6 | 3.2 | 0.00 | 0.00 | 0.00 | 56 | 1011.9 |
| 20260509082804 | 13 | 302 | 0.0 | 3.2 | 0.00 | 0.00 | 0.00 | 55 | 1012.0 |
| 20260509082307 | 13 | 320 | 1.6 | 3.2 | 0.00 | 0.00 | 0.00 | 55 | 1012.0 |
| 20260509081803 | 13 | 304 | 0.0 | 3.2 | 0.00 | 0.00 | 0.00 | 55 | 1012.0 |
| 20260509081303 | 13 | 327 | 1.6 | 3.2 | 0.00 | 0.00 | 0.00 | 54 | 1012.0 |
| 20260509080804 | 13 | 257 | 3.2 | 4.8 | 0.00 | 0.00 | 0.00 | 54 | 1012.1 |
| 20260509080303 | 13 | 305 | 0.0 | 1.6 | 0.00 | 0.00 | 0.00 | 53 | 1012.1 |
| 20260509075803 | 13 | 320 | 0.0 | 1.6 | 0.00 | 0.00 | 0.00 | 53 | 1012.2 |
| 20260509075306 | 13 | 283 | 1.6 | 4.8 | 0.00 | 0.00 | 0.00 | 53 | 1012.2 |
| 20260509074303 | 13 | 321 | 1.6 | 4.8 | 0.00 | 0.00 | 0.00 | 52 | 1012.3 |
| 20260509073803 | 13 | 316 | 1.6 | 3.2 | 0.00 | 0.00 | 0.00 | 52 | 1012.3 |
| 20260509073304 | 13 | 323 | 1.6 | 4.8 | 0.00 | 0.00 | 0.00 | 53 | 1012.4 |
| 20260509072804 | 12 | 340 | 1.6 | 1.6 | 0.00 | 0.00 | 0.00 | 53 | 1012.4 |
| 20260509072306 | 12 | 262 | 0.0 | 3.2 | 0.00 | 0.00 | 0.00 | 53 | 1012.5 |
| 20260509071804 | 12 | 320 | 0.0 | 1.6 | 0.00 | 0.00 | 0.00 | 54 | 1012.6 |
| 20260509070804 | 12 | 92 | 1.6 | 3.2 | 0.00 | 0.00 | 0.00 | 54 | 1012.7 |
| 20260509070304 | 13 | 91 | 0.0 | 3.2 | 0.00 | 0.00 | 0.00 | 55 | 1012.7 |
| 20260509065804 | 13 | 92 | 0.0 | 1.6 | 0.00 | 0.00 | 0.00 | 54 | 1012.7 |
| 20260509065306 | 13 | 92 | 1.6 | 3.2 | 0.00 | 0.00 | 0.00 | 54 | 1012.7 |
| 20260509064804 | 13 | 347 | 0.0 | 1.6 | 0.00 | 0.00 | 0.00 | 53 | 1012.8 |